Reflectivity
-20 -20 -20 -20 -20 -20 -20 -20 -20 -20 -20 -20 -20 -20 -20 -20 -20 -20 -20 -20 -20 -20 -20 -20 -20 -20 -20 -20 -20 -20 -20 -20 -20 -20 -20 -20 -20 -20 -20 -20 -20 -20 -20 -20 -20 -20 -20
-20 -20 -20 -20 -20 -20 -20 -20 -20 -20 -20 -20 -20 -20 -20 -20 -20 -20 -20 -20 -20 -20 -20 -20 -20 -20 -20 -20 -20 -20 -20 -20 -20 -20 -20 -20 -20 -20 -20 -20 -20 -20 -20 -20 -20 -20 -20
-20 -20 -20 -20 -20 -20 -20 -20 -20 -20 -20 -20 -20 -20 -20 -20 -20 -20 -20 -20 -20 -20 -20 -20 -20 -20 -20 -20 -20 -20 -20 -20 -20 -20 -20 -20 -20 -20 -20 -20 -20 -20 -20 -20 -20 -20 -20
-20 -20 -20 -20 -20 -20 -20 -20 -20 -20 -20 -20 -20 -20 -20 -20 -20 -20 -20 -20 -20 -20 -20 -20 -20 -20 -20 -20 -20 -20 -20 -20 -20 -20 -20 -20 -20 -20 -20 -20 -20 -20 -20 -20 -20 -20 -20
-20 -20 -20 -20 -20 -20 -20 -20 -20 -20 -20 -20 -20 -20 -20 -20 -20 -20 -20 -20 -20 -20 -20 -20 -20 -20 -20 -20 -20 -20 -20 -20 -20 -20 -20 -20 -20 -20 -20 -20 -20 -20 -20 -20 -20 -20 -20
-20 -20 -20 -20 -20 -20 -20 -20 -20 -20 -20 -20 -20 -20 -20 -20 -20 -20 -20 -20 -20 -20 -20 -20 -20 -20 -20 -20 -20 -20 -20 -20 -20 -20 -20 -20 -20 -20 -20 -20 -20 -20 -20 -20 -20 -20 -20
-20 -20 -20 -20 -20 -20 -20 -20 -20 -20 -20 -20 -20 -20 -20 -20 -20 -20 -20 -20 -20 -20 -20 -20 -20 -20 -20 -20 -20 -20 -20 -20 -20 -20 -20 -20 -20 -20 -20 -20 -20 -20 -20 -20 -20 -20 -20
-20 -20 -20 -20 -20 -20 -20 -20 -20 -20 -20 -20 -20 -20 -20 -20 -20 -20 -20 -20 -20 -20 -20 -20 -20 -20 -20 -20 -20 -20 -20 -20 -20 -20 -20 -20 -20 -20 -20 -20 -20 -20 -20 -20 -20 -20 -20
-20 -20 -20 -20 -20 -20 -20 -20 -20 -20 -20 -20 -20 -20 -20 -20 -20 -20 -20 -20 -20 -20 -20 -20 -20 -20 -20 -20 -20 -20 -20 -20 -20 -20 -20 -20 -20 -20 -20 -20 -20 -20 -20 -20 -20 -20 -20
-20 -20 -20 -20 -20 -20 -20 -20 -20 -20 -20 -20 -20 -20 -20 -20 -20 -20 -20 -20 -20 -20 -20 -20 -20 -20 -20 -20 -20 -20 -20 -20 -20 -20 -20 -20 -20 -20 -20 -20 -20 -20 -20 -20 -20 -20 -20
-20 -20 -20 -20 -20 -20 -20 -20 -20 -20 -20 -20 -20 -20 -20 -20 -20 -20 -20 -20 -20 -20 -20 -20 -20 -20 -20 -20 -20 -20 -20 -20 -20 -20 -20 -20 -20 -20 -20 -20 -20 -20 -20 -20 -20 -20 -20
-20 -20 -20 -20 -20 -20 -20 -20 -20 -20 -20 -20 -20 -20 -20 -20 -20 -20 -20 -20 -20 -20 -20 -20 -20 -20 -20 -20 -20 -20 -20 -20 -20 -20 -20 -20 -20 -20 -20 -20 -20 -20 -20 -20 -20 -20 -20
-20 -20 -20 -20 -20 -20 -20 -20 -20 -20 -20 -20 -20 -20 -20 -20 -20 -20 -20 -20 -20 -20 -20 -20 -20 -20 -20 -20 -20 -20 -20 -20 -20 -20 -20 -20 -20 -20 -20 -20 -20 -20 -20 -20 -20 -20 -20
-20 -20 -20 -20 -20 -20 -20 -20 -20 -20 -20 -20 -20 -20 -20 -20 -20 -20 -20 -20 -20 -20 -20 -20 -20 -20 -20 -20 -20 -20 -20 -20 -20 -20 -20 -20 -20 -20 -20 -20 -20 -20 -20 -20 -20 -20 -20
-20 -20 -20 -20 -20 -20 -20 -20 -20 -20 -20 -20 -20 -20 -20 -20 -20 -20 -20 -20 -20 -20 -20 -20 -20 -20 -20 -20 -20 -20 -20 -20 -20 -20 -20 -20 -20 -20 -20 -20 -20 -20 -20 -20 -19 -20 -20
-20 -20 -20 -20 -20 -20 -20 -20 -20 -20 -20 -20 -20 -20 -20 -20 -20 -20 -20 -20 -20 -20 -20 -20 -20 -20 -20 -20 -20 -20 -20 -20 -20 -20 -20 -20 -20 -20 -20 -20 -20 -20 -20 -20 -20 -20 -20
-20 -20 -20 -20 -20 -20 -20 -20 -20 -20 -20 -20 -20 -20 -20 -20 -20 -20 -20 -20 -20 -20 -20 -20 -20 -20 -20 -20 -20 -20 -20 -20 -20 -20 -20 -20 -20 -20 -20 -20 -20 -20 -20 -20 -20 -5 -20
-20 -20 -20 -20 -20 -20 -20 -20 -20 -20 -20 -20 -20 -20 -20 -20 -20 -20 -20 -20 -20 -20 -20 -20 -20 -20 -20 -20 -20 -20 -20 -20 -20 -20 -20 -20 -20 -20 -20 -20 -20 -20 -20 -20 -20 -20 -20
-20 -20 -20 -20 -20 -20 -20 -20 -20 -20 -20 -20 -20 -20 -20 -20 -20 -20 -20 -20 -20 -20 -20 -20 -20 -20 -20 -20 -20 -20 -20 -20 -20 -20 -20 -20 -20 -20 -20 -20 -20 -20 -20 -20 -20 -20 -20
-20 -16 -20 -20 -20 -20 -20 -20 -20 -20 -20 -20 -20 -20 -20 -20 -20 -20 -20 -20 -20 -20 -20 -20 -20 -20 -20 -20 -20 -20 -20 -20 -20 -20 -20 -20 -20 -20 -20 -20 -20 -20 -20 -20 -20 -20 -20
-20 -16 -18 -13 -20 -20 -20 -20 -20 -20 -20 -20 -20 -20 -20 -20 -20 -20 -20 -20 -20 -20 -20 -20 -20 -20 -20 -20 -20 -20 -20 -20 -20 -20 -20 -20 -20 -20 -20 -20 -20 -20 -20 -20 -20 -20 -20
8 20 -2 -5 -7 -20 -20 -20 -20 -20 -20 -20 -20 -20 -20 -20 -20 -20 -20 -20 -20 -20 -20 -20 -20 -20 -20 -20 -20 -20 -20 -20 -20 -20 -20 -20 -20 -20 -20 -20 -20 -20 -20 -20 -11 -20 -20
-20 22 2 -19 4 -20 -20 -20 -12 -20 -20 -20 -20 -20 -20 -20 -20 -20 -20 -20 -20 -20 -20 -20 -20 -20 -20 -20 -20 -20 -20 -20 -20 -20 -20 -20 -20 -20 -20 -20 -20 -20 -20 -20 -20 -20 -20
-12 -8 18 14 -8 -2 -13 10 -2 -20 -20 -20 -20 -20 -20 -20 -20 -20 -20 -20 -20 -20 -20 -20 -20 -20 -20 -20 -20 -20 -20 -20 -20 -20 -20 -20 -20 -20 -20 -20 -20 -20 -20 -20 -20 -20 -20
-6 26 25 15 2 -14 -20 2 -4 -20 -20 -20 -20 -20 -20 -20 -20 -20 -20 -20 -20 -20 -20 -20 -20 -20 -20 -20 -20 -20 -20 -20 -20 -20 -20 -20 -20 -20 -20 -20 -20 -8 -20 -20 -20 -20 -20
24 29 23 10 10 -14 -20 -9 15 -18 -20 -20 -20 -20 -20 -20 -20 -20 -20 -20 -20 -20 -20 -20 -20 -20 -20 -20 -20 -20 -20 -20 -20 -20 -20 -20 -20 -20 -20 -20 -20 -20 -20 -20 -20 -20 -20
32 28 21 20 20 5 -20 -12 -2 -8 -20 -20 -20 -20 -20 -20 -20 -20 -20 -20 -20 -20 -20 -20 -20 -20 -20 -20 -20 -20 -20 -20 -20 -20 -20 -20 -20 -20 -20 -20 -20 -20 -20 -20 -20 -20 -20
29 32 24 19 17 7 -18 -19 4 -9 -20 -20 -20 -20 -20 -20 -20 -20 -20 -20 -20 -20 -20 -20 -20 -20 -20 -20 -20 -20 -20 -20 -20 -20 -20 -20 -20 -20 -20 -20 -20 -20 -20 -20 -20 -20 -20
35 26 29 29 17 8 -9 -19 9 16 16 7 -20 -20 -20 -20 -20 -20 -20 -20 -20 -20 -20 -20 -20 -20 -20 -20 -20 -20 -20 -20 -20 -20 -20 -20 -20 -20 -20 -20 -20 -20 -20 -20 -20 -20 -20
Wind_Speed
12 13 14 15 15 16 17 18 19 19 20 20 20 20 19 18 18 16 15 13 11 8 8 8 6 4 2 8 5 8 16 10 5 4 5 3 4 2 2 1 3 3 3 5 8 8 9
12 13 14 15 16 17 17 18 18 19 20 21 21 21 20 20 19 18 16 13 9 7 7 7 6 1 3 9 7 10 10 5 5 4 4 5 2 2 3 2 2 1 2 6 10 12 7
12 13 14 15 16 17 18 19 19 20 20 21 21 21 21 20 20 18 17 14 7 6 6 6 7 3 17 6 5 9 10 3 5 2 3 2 2 4 1 3 2 2 1 6 14 12 6
12 13 14 14 15 17 18 19 20 20 21 21 21 20 20 20 19 19 19 10 2 2 5 7 7 4 6 1 7 23 12 6 8 5 2 2 2 5 6 6 6 5 4 3 7 14 7
12 13 14 15 16 18 19 19 20 21 21 21 21 20 20 20 19 19 12 7 4 2 4 6 6 7 4 9 10 14 8 8 7 6 8 7 7 6 9 5 4 9 2 4 2 12 10
12 13 15 16 17 18 19 20 20 20 21 22 21 19 19 19 18 16 8 4 5 3 4 2 3 7 7 2 7 10 8 8 6 4 7 11 8 6 7 9 3 5 4 4 1 7 9
12 14 15 16 17 18 19 19 20 20 20 21 22 20 18 17 16 14 4 4 6 9 12 7 2 6 3 3 9 16 11 8 8 9 7 7 13 6 7 5 2 3 3 3 5 4 5
12 13 15 16 17 18 19 19 20 20 20 21 20 18 18 18 7 13 5 7 1 3 7 5 7 7 6 3 10 24 17 9 9 7 4 8 8 7 5 8 6 4 2 2 8 8 4
11 13 15 16 17 18 19 19 20 20 20 22 20 19 19 16 4 7 6 3 4 2 6 4 5 6 3 9 6 14 11 6 7 9 13 9 5 6 5 9 12 2 2 5 8 6 9
10 12 14 15 17 18 19 20 21 21 21 21 20 18 18 13 7 1 4 6 3 1 6 9 7 8 8 5 6 7 7 3 7 5 4 9 5 8 8 7 8 5 7 11 13 8 3
9 11 12 14 16 18 19 20 21 21 20 19 19 17 15 13 4 4 4 5 3 3 4 5 5 3 7 10 5 19 6 7 6 8 2 2 4 9 7 9 6 4 13 11 9 4 1
8 10 11 13 15 16 18 20 21 20 19 19 18 16 10 5 4 2 5 3 3 6 4 3 4 6 6 9 5 4 10 7 2 5 6 3 2 3 3 10 5 9 9 6 2 2 3
8 9 11 13 15 16 18 19 20 21 20 18 17 10 5 2 3 4 2 3 6 6 3 6 5 5 5 7 5 6 10 12 6 5 7 6 3 3 6 6 7 15 8 5 7 6 2
8 10 11 13 14 16 17 18 20 21 20 19 13 3 4 4 4 1 3 5 5 4 5 3 4 2 5 6 4 6 2 5 7 5 3 4 4 6 7 3 5 6 3 3 4 2 6
7 9 11 13 15 16 17 18 18 19 18 18 4 2 3 5 2 2 5 8 2 2 2 5 2 5 4 4 3 4 4 2 3 5 3 5 3 4 4 2 4 6 4 2 3 4 2
6 9 11 12 14 16 17 18 19 19 16 11 2 2 2 8 1 5 9 5 2 2 2 2 3 4 5 5 5 4 4 3 2 4 1 1 5 3 5 3 4 2 3 4 2 3 5
4 7 9 11 13 15 18 20 21 22 19 4 4 4 3 6 4 9 6 3 4 2 1 3 2 3 3 3 1 2 4 2 3 5 2 1 2 6 2 3 0 4 4 3 3 3 2
4 4 8 12 13 14 16 19 20 21 18 8 3 3 4 3 8 4 4 3 3 2 6 4 5 3 2 1 2 1 1 1 2 2 3 2 2 4 5 2 3 3 3 2 2 7 2
4 2 5 9 12 14 16 17 18 18 11 3 3 2 4 4 5 3 2 4 4 3 4 3 3 4 1 2 1 1 1 1 4 3 1 1 2 4 7 2 4 3 2 2 4 2 2
6 3 3 7 10 13 15 17 18 16 6 6 4 4 6 7 2 6 4 3 3 4 3 4 3 4 2 1 3 2 1 1 4 3 9 1 2 6 6 9 4 3 2 1 2 2 4
8 4 2 6 9 11 14 15 17 14 4 6 5 1 2 3 5 5 4 2 3 2 3 4 3 3 2 1 1 1 0 4 1 5 3 3 2 4 9 10 3 1 2 1 0 3 4
10 5 1 4 8 11 13 16 16 13 5 7 4 5 4 2 0 4 4 2 3 3 2 1 3 0 1 2 3 4 0 2 2 3 3 2 3 2 5 2 3 2 3 4 3 5 9
13 9 4 2 5 9 11 13 16 13 6 4 1 2 6 3 2 2 1 3 2 6 3 3 3 2 2 2 4 5 5 2 1 1 2 1 1 3 5 3 3 3 0 2 6 9 5
16 11 6 2 3 7 10 12 16 13 9 5 2 4 5 2 3 2 2 3 4 2 5 3 4 1 1 3 1 3 1 3 3 4 3 2 1 2 4 5 3 3 4 4 9 11 2
18 13 10 6 3 5 8 9 11 17 10 6 2 4 5 4 5 5 4 4 4 4 2 2 1 1 1 2 1 1 2 1 2 2 3 1 3 2 1 2 4 2 3 5 6 12 6
20 17 13 9 6 5 7 9 7 7 12 6 3 1 5 8 1 3 4 1 2 1 3 1 2 2 3 0 0 2 3 1 2 2 3 3 5 5 2 1 4 2 5 6 2 6 2
22 19 15 11 8 6 6 8 10 14 10 6 3 3 6 6 2 3 3 4 3 2 2 2 4 5 3 1 1 2 2 1 2 2 1 2 3 2 1 3 6 2 9 6 3 5 15
24 21 17 13 10 8 7 9 11 10 7 6 1 4 5 4 3 3 3 3 2 2 3 3 3 3 3 3 2 2 2 2 3 2 3 4 3 1 1 2 7 2 3 2 3 9 11
26 22 19 14 11 8 8 10 9 9 9 6 4 3 5 7 4 3 4 3 3 2 4 1 4 3 4 4 1 2 1 2 2 2 2 2 5 4 7 5 1 0 4 2 4 9 9
Wind_Direction
33 28 22 18 13 10 8 4 1 359 357 355 354 352 348 346 345 344 342 344 343 351 357 12 12 360 340 49 37 304 329 335 360 19 53 43 53 61 58 13 328 187 340 348 330 341 39
30 26 21 15 11 8 5 3 1 358 356 354 353 350 347 345 344 341 339 337 339 342 356 357 350 310 66 70 308 324 336 343 10 36 33 54 117 170 143 175 164 76 290 359 356 356 33
28 22 18 13 9 6 3 2 0 358 356 354 353 350 347 345 343 338 335 327 328 333 350 357 354 60 64 88 313 311 358 315 355 23 25 38 64 58 16 338 346 285 340 71 10 341 24
26 21 16 11 7 5 4 2 359 357 355 353 352 351 347 345 343 340 342 354 5 338 338 343 352 67 90 217 356 13 343 349 357 35 355 352 82 78 34 322 16 23 48 51 15 9 332
21 16 12 9 5 5 4 1 358 356 354 353 352 351 348 344 345 341 350 38 55 7 341 341 35 82 45 346 13 352 9 340 315 358 19 53 50 65 9 11 28 15 23 16 45 28 352
17 13 9 6 4 4 3 360 358 355 352 352 351 350 346 343 338 347 347 14 11 7 348 31 63 53 18 27 338 342 345 350 19 348 24 31 44 61 24 20 354 324 333 338 346 347 355
14 9 7 5 2 2 1 358 355 352 352 350 349 348 346 343 333 351 28 25 21 7 22 86 8 109 60 310 36 2 349 342 21 50 18 26 55 53 36 13 334 312 292 320 307 350 348
12 7 5 4 1 360 358 355 353 351 351 351 349 346 343 343 340 17 61 73 124 161 84 48 79 70 48 48 19 359 353 56 46 30 339 45 63 15 63 15 359 24 43 325 293 310 317
12 9 6 2 360 358 353 352 352 349 350 350 349 346 346 349 64 38 67 74 302 249 99 32 82 68 58 59 48 332 7 5 54 53 49 80 357 40 17 38 14 2 99 312 278 317 271
12 8 6 1 357 354 352 351 350 349 350 349 349 348 348 340 46 296 56 316 310 277 86 331 358 7 6 111 55 9 9 29 41 43 76 78 353 30 32 24 6 307 5 311 303 330 279
7 6 5 0 356 353 351 351 350 349 348 347 346 344 355 31 140 46 320 324 311 44 19 340 24 50 12 78 282 351 324 19 58 21 91 40 33 26 26 346 333 283 315 297 293 265 174
1 1 360 357 354 354 351 349 348 347 348 345 343 341 355 20 43 13 332 338 42 45 272 14 40 17 40 23 44 16 7 30 55 54 48 70 338 61 325 306 326 321 324 334 30 62 38
351 355 354 354 353 353 352 350 348 347 346 342 339 342 37 45 306 332 359 47 33 107 347 2 358 12 75 14 47 19 41 41 36 15 16 346 11 354 23 339 344 1 3 1 5 10 260
343 348 349 352 353 352 351 350 349 346 342 340 344 49 18 70 317 76 57 49 64 42 23 346 352 41 60 13 44 10 54 33 21 35 65 32 325 20 351 11 300 317 31 109 224 269 272
332 342 348 350 351 349 348 349 347 345 343 343 1 4 48 336 344 65 73 53 83 34 290 334 311 47 17 3 42 65 38 59 22 9 70 7 276 317 20 358 11 330 33 190 228 210 262
321 338 346 348 349 347 346 347 345 344 342 356 75 66 341 327 77 72 72 110 118 35 349 17 54 35 28 349 32 44 14 337 10 32 173 246 293 285 324 26 39 99 319 37 2 328 290
302 334 341 343 348 348 348 348 348 347 346 17 51 47 276 340 60 48 89 116 129 56 146 56 123 67 71 18 20 18 352 351 17 332 7 138 136 296 10 29 141 357 9 15 227 269 215
262 326 338 341 345 349 353 350 351 352 348 47 81 24 330 17 49 37 70 87 109 28 26 51 88 93 112 139 62 87 123 351 335 318 340 279 179 280 268 343 122 111 145 132 129 291 246
226 288 338 339 346 348 355 354 355 357 23 78 65 294 330 54 93 82 91 76 73 63 40 52 81 54 26 76 335 137 151 61 22 348 10 240 339 340 344 53 349 112 105 200 243 222 230
210 252 332 337 352 348 355 355 358 0 33 85 76 9 353 41 23 106 119 87 101 39 63 67 106 75 67 118 30 177 338 286 335 323 24 116 169 162 203 242 235 248 177 4 113 267 302
205 220 338 345 349 356 359 1 360 2 52 91 31 107 177 17 21 82 89 109 126 110 78 32 56 71 121 184 352 204 346 323 309 354 34 88 214 198 257 260 245 253 131 126 285 260 260
194 198 195 2 350 2 6 2 360 6 96 78 114 128 34 78 64 73 13 90 142 125 78 79 114 262 254 208 194 210 96 207 266 332 33 358 265 331 282 273 210 258 62 348 261 297 282
183 181 175 41 2 3 16 11 4 16 81 98 146 58 101 338 39 69 182 143 142 121 47 80 138 116 217 228 200 219 208 207 234 152 295 345 343 13 277 340 18 341 252 334 302 292 272
180 172 157 121 33 16 24 22 20 31 72 113 148 110 93 90 77 74 117 101 134 154 145 156 119 121 238 352 170 89 86 221 216 258 196 286 121 135 277 351 340 232 71 304 317 294 96
175 171 169 165 120 56 43 37 43 50 72 88 120 114 120 108 119 92 95 108 83 34 77 129 103 198 327 332 42 35 351 137 56 133 93 164 104 353 8 214 284 316 47 340 333 313 66
176 175 171 164 147 98 67 56 62 91 85 83 65 3 95 117 213 60 102 60 150 156 6 115 25 321 46 153 164 155 213 238 230 233 126 89 67 115 24 349 271 225 308 297 278 273 1
176 175 172 164 149 120 93 77 77 72 91 94 64 11 90 103 35 68 127 161 113 93 146 300 343 9 5 46 128 170 236 224 224 245 328 349 11 115 304 253 282 274 291 290 321 317 323
176 172 168 167 152 134 126 106 94 91 90 78 52 353 108 95 69 34 40 108 58 32 129 254 42 356 28 64 112 217 138 235 67 278 189 165 121 243 39 326 295 322 344 21 268 313 307
172 168 162 162 144 135 137 126 117 103 104 98 86 346 44 76 106 77 80 30 52 198 138 319 180 169 187 88 14 107 166 78 155 269 40 354 174 196 168 228 69 149 223 100 327 299 313